Location: Niagara
(43.2500°N, 79.0670°W)
Time: 21:38:50
(UTC-05:00)

Vanguard 2 Rocket - Visible Passes

Search period start: 13 December 2017 00:00
Search period end: 23 December 2017 00:00
Orbit: 555 x 3326 km, 32.9° (Epoch: 13 December)

Date Brightness Start Highest point End Pass type
(mag) Time Alt. Az. Time Alt. Az. Time Alt. Az.
13 Dec 10.6 03:53:13 11° SSW 03:53:13 11° SSW 03:53:58 10° SSW visible
13 Dec 9.8 17:33:34 10° S 17:41:45 24° SE 17:53:11 10° E visible
13 Dec 9.4 19:43:07 10° SW 19:55:25 50° SSE 19:59:02 45° SE visible
13 Dec 9.8 21:56:10 10° WSW 22:04:50 42° WSW 22:04:50 42° WSW visible
14 Dec 10.7 02:57:07 11° S 02:57:07 11° S 02:57:23 10° S visible
14 Dec 9.4 18:44:28 10° SW 18:54:59 41° SSE 19:02:49 28° ESE visible
14 Dec 9.3 20:56:26 10° WSW 21:08:37 57° SSW 21:08:37 57° SSW visible
14 Dec 10.5 23:10:47 10° W 23:14:25 21° W 23:14:25 21° W visible
15 Dec 9.5 17:46:25 10° SSW 17:55:07 31° SE 18:06:35 13° E visible
15 Dec 9.2 19:57:08 10° WSW 20:09:21 55° SSE 20:12:22 51° SE visible
15 Dec 9.9 22:10:32 10° W 22:18:10 37° WSW 22:18:10 37° WSW visible
16 Dec 9.2 18:58:16 10° SW 19:08:46 48° SSE 19:16:08 32° ESE visible
16 Dec 9.4 21:10:44 10° WSW 21:21:56 55° SSW 21:21:56 55° SSW visible
16 Dec 10.6 23:25:19 10° W 23:27:44 17° W 23:27:44 17° W visible
17 Dec 9.3 17:59:52 10° SW 18:08:43 38° SSE 18:19:54 16° E visible
17 Dec 9.2 20:11:21 10° WSW 20:23:26 57° S 20:25:42 54° SSE visible
17 Dec 10.0 22:25:01 10° W 22:31:30 32° WSW 22:31:30 32° WSW visible
18 Dec 9.4 17:02:02 10° SSW 17:09:13 28° SE 17:20:08 10° E visible
18 Dec 9.1 19:12:21 10° WSW 19:22:46 52° SSE 19:29:29 36° ESE visible
18 Dec 9.5 21:25:09 10° W 21:35:17 50° SW 21:35:17 50° SW visible
18 Dec 10.7 23:40:04 10° W 23:41:05 13° W 23:41:05 13° W visible
19 Dec 9.1 18:13:44 10° SW 18:22:35 45° SSE 18:33:16 19° E visible
19 Dec 9.2 20:25:43 10° WSW 20:37:36 56° S 20:39:04 55° SSE visible
19 Dec 10.2 22:39:37 10° W 22:44:53 27° WSW 22:44:53 27° WSW visible
20 Dec 9.2 17:15:33 10° SSW 17:22:55 35° SSE 17:34:49 10° E visible
20 Dec 9.0 19:26:38 10° WSW 19:36:54 54° S 19:42:53 39° ESE visible
20 Dec 9.6 21:39:41 10° W 21:48:42 43° SW 21:48:42 43° SW visible
21 Dec 9.0 18:27:52 10° WSW 18:36:38 49° SSE 18:46:44 21° ESE visible
21 Dec 9.2 20:40:11 10° W 20:51:49 53° S 20:52:33 52° S visible
21 Dec 10.4 22:54:26 10° W 22:58:21 21° WSW 22:58:21 21° WSW visible
22 Dec 8.9 17:29:27 10° SW 17:36:49 41° SSE 17:49:14 10° E visible
22 Dec 9.1 19:41:02 10° WSW 19:51:08 53° S 19:56:26 40° SE visible
22 Dec 9.8 21:54:21 10° W 22:02:15 36° SW 22:02:15 36° SW visible
